Location: Toruń
(53.0217°N, 18.6107°E)
Time: 22:30:07
(UTC+02:00)

ISS - Visible Passes

Search period start: 25 September 2018 00:00
Search period end: 05 October 2018 00:00
Orbit: 403 x 408 km, 51.6° (Epoch: 26 September)

Date Brightness Start Highest point End Pass type
(mag) Time Alt. Az. Time Alt. Az. Time Alt. Az.
25 Sep -2.2 19:29:06 10° SSW 19:31:35 20° SSE 19:33:24 13° ESE visible
25 Sep -2.1 21:04:25 10° WSW 21:06:06 26° SW 21:06:06 26° SW visible
26 Sep -3.3 20:12:41 10° SW 20:15:50 43° SSE 20:16:23 39° SE visible
26 Sep -0.6 21:48:53 10° W 21:49:04 11° W 21:49:04 11° W visible
27 Sep -2.8 19:21:04 10° SW 19:24:03 32° SSE 19:26:35 13° E visible
27 Sep -2.7 20:57:00 10° WSW 20:59:16 39° WSW 20:59:16 39° WSW visible
28 Sep -3.7 20:05:09 10° WSW 20:08:25 59° SSE 20:09:23 39° ESE visible
28 Sep -0.8 21:41:31 10° W 21:42:03 14° W 21:42:03 14° W visible
29 Sep -3.3 19:13:21 10° WSW 19:16:33 47° SSE 19:19:26 12° E visible
29 Sep -3.0 20:49:37 10° W 20:52:07 47° WSW 20:52:07 47° WSW visible
30 Sep -3.8 19:57:42 10° W 20:00:59 69° S 20:02:08 37° ESE visible
30 Sep -0.9 21:34:08 10° W 21:34:48 15° W 21:34:48 15° W visible
01 Oct -3.6 19:05:47 10° WSW 19:09:04 63° S 19:12:07 11° E visible
01 Oct -3.0 20:42:11 10° W 20:44:47 47° WSW 20:44:47 47° WSW visible
02 Oct -3.8 19:50:14 10° W 19:53:31 69° S 19:54:46 34° ESE visible
02 Oct -0.9 21:26:45 10° W 21:27:26 15° W 21:27:26 15° W visible
03 Oct -3.7 18:58:16 10° W 19:01:33 70° S 19:04:44 11° E visible
03 Oct -2.9 20:34:43 10° W 20:37:24 41° SW 20:37:24 41° SW visible
04 Oct -3.5 19:42:44 10° W 19:45:59 57° SSW 19:47:23 29° SE visible
04 Oct -0.8 21:19:29 10° W 21:20:03 13° WSW 21:20:03 13° WSW visible
